CXA8126 ZBTJ-ZSAM

Flight info

Callsign CXA8126
Flight time 2h 17m
Altitude 36100
Route ELKUR8W ELKUR W40 YQG W142 DALIM/K0832S1070 A593 DPX A470 SAPIN V143 EMRID/K0852S1100 A470 ENVEN ENVEN8X
Aircraft A21N/M-SDE2E3FGHIRWXY/LB1

Departure

Time 2026-04-25 13:07
Airport Tianjin Binhai International Airport (ZBTJ)

Arrival

Time 2026-04-25 15:25
Airport Xiamen Gaoqi International Airport (ZSAM)
Time Latitude Longitude Altitude Speed Heading
2026-04-25 12:44 39.12849 117.35574 19 ft 0 kts 32°
2026-04-25 12:54 39.12844 117.35570 19 ft 2 kts 32°
2026-04-25 12:55 39.12827 117.35556 21 ft 3 kts 32°
2026-04-25 12:55 39.12816 117.35547 21 ft 2 kts 32°
2026-04-25 12:55 39.12797 117.35527 21 ft 3 kts 63°
2026-04-25 12:55 39.12791 117.35503 21 ft 3 kts 91°
2026-04-25 12:56 39.12793 117.35486 20 ft 1 kts 103°
2026-04-25 12:56 39.12793 117.35485 20 ft 0 kts 103°
2026-04-25 12:58 39.12790 117.35502 20 ft 7 kts 103°
2026-04-25 12:58 39.12764 117.35562 19 ft 8 kts 137°
2026-04-25 12:59 39.12690 117.35611 21 ft 13 kts 154°
2026-04-25 12:59 39.12606 117.35641 19 ft 12 kts 176°
2026-04-25 12:59 39.12524 117.35637 19 ft 11 kts 183°
2026-04-25 12:59 39.12447 117.35631 19 ft 11 kts 186°
2026-04-25 13:00 39.12382 117.35601 19 ft 10 kts 223°
2026-04-25 13:00 39.12355 117.35545 21 ft 12 kts 242°
2026-04-25 13:00 39.12302 117.35402 20 ft 13 kts 244°
2026-04-25 13:00 39.12264 117.35300 19 ft 12 kts 245°
2026-04-25 13:01 39.12223 117.35186 19 ft 14 kts 247°
2026-04-25 13:01 39.12249 117.35122 19 ft 7 kts 336°
2026-04-25 13:01 39.12329 117.35068 20 ft 20 kts 334°
2026-04-25 13:01 39.12453 117.34990 19 ft 19 kts 334°
2026-04-25 13:02 39.12572 117.34918 20 ft 18 kts 334°
2026-04-25 13:02 39.12684 117.34848 19 ft 17 kts 334°
2026-04-25 13:02 39.12790 117.34783 21 ft 16 kts 335°
2026-04-25 13:02 39.12888 117.34724 21 ft 15 kts 335°
2026-04-25 13:03 39.12980 117.34668 20 ft 14 kts 334°
2026-04-25 13:03 39.13018 117.34576 19 ft 12 kts 268°
2026-04-25 13:03 39.13051 117.34500 19 ft 10 kts 323°
2026-04-25 13:03 39.13106 117.34462 21 ft 8 kts 334°
2026-04-25 13:04 39.13155 117.34432 19 ft 7 kts 335°
2026-04-25 13:04 39.13195 117.34409 19 ft 6 kts 335°
2026-04-25 13:04 39.13227 117.34389 20 ft 4 kts 335°
2026-04-25 13:04 39.13258 117.34368 19 ft 10 kts 332°
2026-04-25 13:05 39.13366 117.34303 19 ft 23 kts 335°
2026-04-25 13:05 39.13553 117.34189 19 ft 33 kts 334°
2026-04-25 13:05 39.13753 117.34063 19 ft 26 kts 333°
2026-04-25 13:05 39.13773 117.33956 22 ft 12 kts 245°
2026-04-25 13:06 39.13739 117.33871 21 ft 9 kts 224°
2026-04-25 13:06 39.13680 117.33855 21 ft 11 kts 167°
2026-04-25 13:06 39.13644 117.33876 21 ft 0 kts 155°
2026-04-25 13:06 39.13643 117.33876 23 ft 1 kts 155°
2026-04-25 13:07 39.13490 117.33968 19 ft 59 kts 154°
2026-04-25 13:07 39.12934 117.34310 21 ft 118 kts 154°
2026-04-25 13:07 39.12049 117.34854 23 ft 162 kts 154°
2026-04-25 13:07 39.11032 117.35480 620 ft 153 kts 160°
2026-04-25 13:08 39.10092 117.36061 1272 ft 149 kts 163°
2026-04-25 13:08 39.09155 117.36640 1801 ft 153 kts 165°
2026-04-25 13:08 39.08098 117.36931 2020 ft 162 kts 191°
2026-04-25 13:08 39.06925 117.36729 2165 ft 181 kts 191°
2026-04-25 13:09 39.05581 117.36552 2287 ft 206 kts 190°
2026-04-25 13:09 39.04063 117.36370 2540 ft 229 kts 189°
2026-04-25 13:09 39.02477 117.36188 3185 ft 237 kts 189°
2026-04-25 13:09 39.00803 117.35996 3897 ft 243 kts 189°
2026-04-25 13:10 38.99106 117.35806 4623 ft 247 kts 188°
2026-04-25 13:10 38.97369 117.35609 5309 ft 253 kts 189°
2026-04-25 13:10 38.95593 117.35396 5998 ft 259 kts 191°
2026-04-25 13:10 38.93851 117.34793 6634 ft 262 kts 207°
2026-04-25 13:11 38.92314 117.33533 7288 ft 264 kts 223°
2026-04-25 13:11 38.91125 117.31727 7943 ft 268 kts 240°
2026-04-25 13:11 38.90254 117.29625 8576 ft 273 kts 243°
2026-04-25 13:11 38.89367 117.27440 9225 ft 279 kts 244°
2026-04-25 13:12 38.88461 117.25214 9901 ft 284 kts 244°
2026-04-25 13:12 38.87524 117.22912 10187 ft 302 kts 244°
2026-04-25 13:12 38.86518 117.20433 10313 ft 325 kts 245°
2026-04-25 13:12 38.85811 117.18697 10381 ft 339 kts 244°
2026-04-25 13:13 38.84282 117.14979 10637 ft 362 kts 244°
2026-04-25 13:13 38.83094 117.12099 11159 ft 368 kts 244°
2026-04-25 13:13 38.81891 117.09185 11773 ft 372 kts 244°
2026-04-25 13:13 38.80676 117.06239 12385 ft 375 kts 244°
2026-04-25 13:14 38.79468 117.03310 12999 ft 379 kts 245°
2026-04-25 13:14 38.78231 117.00312 13628 ft 382 kts 245°
2026-04-25 13:14 38.76983 116.97293 14172 ft 385 kts 245°
2026-04-25 13:14 38.75727 116.94254 14730 ft 387 kts 245°
2026-04-25 13:15 38.74461 116.91203 15282 ft 389 kts 244°
2026-04-25 13:15 38.73175 116.88141 15804 ft 392 kts 244°
2026-04-25 13:15 38.71873 116.85063 16360 ft 393 kts 244°
2026-04-25 13:15 38.70580 116.82020 16917 ft 395 kts 244°
2026-04-25 13:16 38.69262 116.78924 17445 ft 397 kts 244°
2026-04-25 13:16 38.67935 116.75811 17978 ft 399 kts 244°
2026-04-25 13:16 38.66540 116.72721 18444 ft 404 kts 238°
2026-04-25 13:16 38.64696 116.69979 18860 ft 412 kts 226°
2026-04-25 13:17 38.62365 116.67793 19277 ft 420 kts 213°
2026-04-25 13:17 38.59656 116.66313 19679 ft 429 kts 199°
2026-04-25 13:17 38.56691 116.65637 20055 ft 437 kts 188°
2026-04-25 13:17 38.53691 116.65299 20456 ft 440 kts 188°
2026-04-25 13:18 38.50632 116.64955 20862 ft 443 kts 188°
2026-04-25 13:18 38.47553 116.64610 21270 ft 446 kts 188°
2026-04-25 13:18 38.44448 116.64261 21667 ft 449 kts 188°
2026-04-25 13:18 38.41327 116.63903 22067 ft 452 kts 188°
2026-04-25 13:19 38.38186 116.63542 22428 ft 455 kts 188°
2026-04-25 13:19 38.35024 116.63177 22803 ft 458 kts 188°
2026-04-25 13:19 38.31833 116.62859 23179 ft 463 kts 185°
2026-04-25 13:19 38.29691 116.62910 23424 ft 467 kts 179°
2026-04-25 13:20 38.25419 116.63856 23830 ft 475 kts 166°
2026-04-25 13:20 38.22242 116.65054 24136 ft 478 kts 166°
2026-04-25 13:20 38.19044 116.66257 24438 ft 481 kts 166°
2026-04-25 13:20 38.15826 116.67457 24706 ft 484 kts 166°
2026-04-25 13:21 38.12586 116.68656 24985 ft 487 kts 166°
2026-04-25 13:21 38.09326 116.69858 25266 ft 489 kts 166°
2026-04-25 13:21 38.06047 116.71084 25548 ft 492 kts 166°
2026-04-25 13:21 38.02761 116.72335 25819 ft 495 kts 166°
2026-04-25 13:22 37.99502 116.73588 26107 ft 497 kts 166°
2026-04-25 13:22 37.96184 116.74863 26387 ft 500 kts 166°
2026-04-25 13:22 37.92845 116.76141 26656 ft 502 kts 166°
2026-04-25 13:23 37.86126 116.78701 27198 ft 507 kts 166°
2026-04-25 13:23 37.82742 116.79982 27531 ft 507 kts 166°
2026-04-25 13:23 37.79365 116.81261 27911 ft 507 kts 166°
2026-04-25 13:23 37.75987 116.82540 28265 ft 507 kts 166°
2026-04-25 13:24 37.72604 116.83821 28616 ft 507 kts 166°
2026-04-25 13:24 37.69230 116.85097 28953 ft 507 kts 166°
2026-04-25 13:24 37.65845 116.86375 29290 ft 507 kts 166°
2026-04-25 13:24 37.62508 116.87632 29643 ft 507 kts 166°
2026-04-25 13:25 37.59131 116.88903 29991 ft 507 kts 166°
2026-04-25 13:25 37.55755 116.90170 30280 ft 507 kts 166°
2026-04-25 13:25 37.52375 116.91436 30555 ft 508 kts 166°
2026-04-25 13:25 37.48963 116.92716 30831 ft 508 kts 166°
2026-04-25 13:26 37.45571 116.93988 30989 ft 509 kts 166°
2026-04-25 13:26 37.38880 116.96498 31022 ft 503 kts 166°
2026-04-25 13:27 37.32175 116.99005 31024 ft 502 kts 166°
2026-04-25 13:27 37.25514 117.01663 31045 ft 504 kts 162°
2026-04-25 13:28 37.18954 117.04783 31039 ft 504 kts 160°
2026-04-25 13:28 37.12430 117.08014 31036 ft 504 kts 161°
2026-04-25 13:29 37.05922 117.11105 31037 ft 504 kts 161°
2026-04-25 13:29 36.99346 117.14140 31016 ft 503 kts 161°
2026-04-25 13:30 36.89491 117.18677 31041 ft 503 kts 161°
2026-04-25 13:31 36.79414 117.21557 31046 ft 495 kts 182°
2026-04-25 13:31 36.72534 117.21509 31038 ft 494 kts 184°
2026-04-25 13:32 36.65651 117.21465 31044 ft 495 kts 184°
2026-04-25 13:32 36.58759 117.21431 31047 ft 495 kts 184°
2026-04-25 13:33 36.51910 117.21386 31042 ft 495 kts 184°
2026-04-25 13:33 36.45013 117.21339 31057 ft 496 kts 182°
2026-04-25 13:34 36.38166 117.22631 31067 ft 501 kts 165°
2026-04-25 13:34 36.31483 117.25131 31069 ft 502 kts 165°
2026-04-25 13:35 36.24789 117.27633 31079 ft 503 kts 164°
2026-04-25 13:35 36.18133 117.30105 31070 ft 503 kts 165°
2026-04-25 13:36 36.11423 117.32584 31089 ft 503 kts 165°
2026-04-25 13:36 36.04712 117.35063 31075 ft 503 kts 164°
2026-04-25 13:37 35.97998 117.37536 31079 ft 504 kts 164°
2026-04-25 13:37 35.91329 117.40025 31079 ft 504 kts 164°
2026-04-25 13:38 35.84622 117.42546 31088 ft 504 kts 164°
2026-04-25 13:38 35.77899 117.45061 31077 ft 505 kts 164°
2026-04-25 13:39 35.71178 117.47564 31098 ft 505 kts 163°
2026-04-25 13:39 35.64444 117.50064 31099 ft 505 kts 163°
2026-04-25 13:40 35.57781 117.52546 31101 ft 506 kts 163°
2026-04-25 13:40 35.51027 117.55057 31100 ft 506 kts 163°
2026-04-25 13:41 35.44293 117.57549 31098 ft 506 kts 163°
2026-04-25 13:41 35.37595 117.60019 31096 ft 506 kts 163°
2026-04-25 13:42 35.30868 117.62496 31095 ft 506 kts 163°
2026-04-25 13:42 35.24115 117.64980 31096 ft 506 kts 163°
2026-04-25 13:43 35.17381 117.67457 31093 ft 506 kts 163°
2026-04-25 13:43 35.10435 117.70010 31103 ft 507 kts 163°
2026-04-25 13:44 35.03923 117.72399 31097 ft 507 kts 163°
2026-04-25 13:44 34.97165 117.74885 31108 ft 507 kts 163°
2026-04-25 13:45 34.90390 117.77366 31105 ft 507 kts 163°
2026-04-25 13:45 34.83630 117.79830 31104 ft 508 kts 163°
2026-04-25 13:46 34.76885 117.82280 31097 ft 508 kts 163°
2026-04-25 13:46 34.70081 117.84721 31093 ft 509 kts 163°
2026-04-25 13:47 34.63331 117.87134 31103 ft 509 kts 163°
2026-04-25 13:47 34.56538 117.89577 31099 ft 509 kts 163°
2026-04-25 13:48 34.49739 117.92021 31098 ft 510 kts 163°
2026-04-25 13:48 34.42930 117.94450 31102 ft 510 kts 163°
2026-04-25 13:49 34.36163 117.96862 31103 ft 510 kts 163°
2026-04-25 13:49 34.29352 117.99294 31100 ft 510 kts 162°
2026-04-25 13:50 34.22541 118.01735 31104 ft 511 kts 162°
2026-04-25 13:50 34.15737 118.04223 31106 ft 511 kts 162°
2026-04-25 13:51 34.09438 118.06534 31122 ft 511 kts 162°
2026-04-25 13:51 34.02623 118.09017 31125 ft 512 kts 161°
2026-04-25 13:52 33.95807 118.11488 31127 ft 512 kts 161°
2026-04-25 13:52 33.89038 118.13952 31118 ft 511 kts 161°
2026-04-25 13:53 33.82228 118.16425 31110 ft 511 kts 161°
2026-04-25 13:53 33.75416 118.18891 31112 ft 511 kts 161°
2026-04-25 13:54 33.68610 118.21373 31114 ft 511 kts 161°
2026-04-25 13:54 33.61850 118.23841 31117 ft 511 kts 161°
2026-04-25 13:55 33.55039 118.26318 31114 ft 511 kts 161°
2026-04-25 13:55 33.48229 118.28783 31113 ft 511 kts 161°
2026-04-25 13:56 33.41419 118.31239 31117 ft 511 kts 161°
2026-04-25 13:56 33.34609 118.33697 31117 ft 511 kts 161°
2026-04-25 13:57 33.27844 118.36146 31119 ft 511 kts 160°
2026-04-25 13:57 33.21028 118.38600 31140 ft 511 kts 161°
2026-04-25 13:58 33.14225 118.41043 31140 ft 511 kts 160°
2026-04-25 13:58 33.07425 118.43488 31139 ft 510 kts 160°
2026-04-25 13:59 33.00623 118.45930 31136 ft 510 kts 160°
2026-04-25 13:59 32.93874 118.48351 31131 ft 510 kts 160°
2026-04-25 14:00 32.87083 118.50783 31125 ft 510 kts 160°
2026-04-25 14:00 32.80291 118.53212 31121 ft 510 kts 160°
2026-04-25 14:01 32.73504 118.55635 31150 ft 509 kts 161°
2026-04-25 14:01 32.66739 118.58070 31149 ft 507 kts 159°
2026-04-25 14:02 32.60155 118.60857 31142 ft 505 kts 155°
2026-04-25 14:02 32.53655 118.63974 31141 ft 504 kts 154°
2026-04-25 14:03 32.47154 118.67066 31167 ft 503 kts 156°
2026-04-25 14:03 32.40630 118.70034 31164 ft 501 kts 157°
2026-04-25 14:04 32.34112 118.72956 31156 ft 500 kts 157°
2026-04-25 14:04 32.27664 118.75856 31149 ft 499 kts 157°
2026-04-25 14:05 32.21191 118.78788 31147 ft 498 kts 157°
2026-04-25 14:05 32.14724 118.81721 31149 ft 497 kts 157°
2026-04-25 14:06 32.08259 118.84635 31141 ft 497 kts 157°
2026-04-25 14:06 32.01796 118.87534 31139 ft 497 kts 157°
2026-04-25 14:07 31.95380 118.90413 31148 ft 497 kts 157°
2026-04-25 14:07 31.88951 118.93293 31160 ft 497 kts 157°
2026-04-25 14:08 31.82467 118.96202 31175 ft 496 kts 158°
2026-04-25 14:08 31.76023 118.99095 31182 ft 495 kts 158°
2026-04-25 14:09 31.69601 119.01981 31177 ft 494 kts 158°
2026-04-25 14:09 31.63174 119.04621 31160 ft 492 kts 165°
2026-04-25 14:10 31.56556 119.06662 31163 ft 491 kts 165°
2026-04-25 14:10 31.49939 119.08649 31139 ft 491 kts 166°
2026-04-25 14:11 31.43315 119.10576 31135 ft 490 kts 166°
2026-04-25 14:11 31.36701 119.12496 31159 ft 489 kts 166°
2026-04-25 14:12 31.30153 119.14413 31158 ft 488 kts 166°
2026-04-25 14:12 31.23585 119.16345 31160 ft 487 kts 166°
2026-04-25 14:13 31.17000 119.18274 31140 ft 487 kts 166°
2026-04-25 14:13 31.10443 119.20186 31157 ft 487 kts 166°
2026-04-25 14:14 31.03870 119.22103 31140 ft 486 kts 166°
2026-04-25 14:14 30.97342 119.24006 31141 ft 486 kts 166°
2026-04-25 14:15 30.90821 119.25900 31179 ft 486 kts 167°
2026-04-25 14:15 30.84260 119.27811 31177 ft 484 kts 167°
2026-04-25 14:16 30.77729 119.29710 31189 ft 483 kts 167°
2026-04-25 14:16 30.71207 119.31598 31181 ft 482 kts 167°
2026-04-25 14:17 30.64697 119.33472 31178 ft 482 kts 167°
2026-04-25 14:17 30.58201 119.35348 31167 ft 481 kts 167°
2026-04-25 14:18 30.51749 119.37210 31164 ft 481 kts 167°
2026-04-25 14:18 30.45260 119.39084 31164 ft 481 kts 167°
2026-04-25 14:19 30.38769 119.40958 31167 ft 481 kts 167°
2026-04-25 14:19 30.32297 119.42815 31165 ft 480 kts 167°
2026-04-25 14:20 30.25793 119.44688 31160 ft 480 kts 167°
2026-04-25 14:20 30.19350 119.46533 31158 ft 481 kts 167°
2026-04-25 14:21 30.12850 119.48385 31152 ft 480 kts 167°
2026-04-25 14:21 30.06370 119.50237 31173 ft 479 kts 167°
2026-04-25 14:22 29.99910 119.52089 31190 ft 478 kts 167°
2026-04-25 14:22 29.93464 119.53927 31189 ft 477 kts 167°
2026-04-25 14:23 29.87078 119.55746 31182 ft 476 kts 168°
2026-04-25 14:23 29.80661 119.57569 31182 ft 475 kts 169°
2026-04-25 14:24 29.68007 119.61140 31181 ft 473 kts 169°
2026-04-25 14:25 29.61602 119.62952 31176 ft 473 kts 169°
2026-04-25 14:25 29.55260 119.64526 31167 ft 467 kts 178°
2026-04-25 14:26 29.48843 119.64487 31179 ft 459 kts 187°
2026-04-25 14:26 29.42483 119.64094 31168 ft 458 kts 187°
2026-04-25 14:27 29.36133 119.63710 31169 ft 459 kts 187°
2026-04-25 14:27 29.29732 119.63332 31174 ft 456 kts 188°
2026-04-25 14:28 29.23450 119.62943 31183 ft 454 kts 188°
2026-04-25 14:28 29.17178 119.62558 30814 ft 449 kts 188°
2026-04-25 14:28 29.14054 119.62367 30102 ft 450 kts 188°
2026-04-25 14:29 29.10920 119.62174 29161 ft 452 kts 188°
2026-04-25 14:29 29.07771 119.61979 28190 ft 455 kts 188°
2026-04-25 14:29 29.04614 119.61784 27809 ft 455 kts 188°
2026-04-25 14:29 29.01480 119.61592 27622 ft 458 kts 188°
2026-04-25 14:30 28.98289 119.61395 27674 ft 460 kts 188°
2026-04-25 14:30 28.92079 119.61011 27673 ft 461 kts 188°
2026-04-25 14:30 28.88867 119.60809 27670 ft 461 kts 188°
2026-04-25 14:31 28.85935 119.60625 27665 ft 461 kts 188°
2026-04-25 14:31 28.82770 119.60427 27650 ft 461 kts 188°
2026-04-25 14:31 28.79473 119.60223 27668 ft 459 kts 188°
2026-04-25 14:31 28.76686 119.60052 27674 ft 459 kts 188°
2026-04-25 14:32 28.73737 119.59870 27807 ft 458 kts 185°
2026-04-25 14:32 28.70583 119.59677 27641 ft 460 kts 188°
2026-04-25 14:32 28.67389 119.59478 27677 ft 459 kts 188°
2026-04-25 14:32 28.64200 119.59279 27675 ft 459 kts 188°
2026-04-25 14:33 28.61015 119.59081 27677 ft 459 kts 188°
2026-04-25 14:33 28.57828 119.58882 27637 ft 458 kts 189°
2026-04-25 14:33 28.54658 119.58687 27677 ft 455 kts 189°
2026-04-25 14:33 28.51504 119.58493 27675 ft 454 kts 189°
2026-04-25 14:34 28.48351 119.58299 27680 ft 453 kts 189°
2026-04-25 14:34 28.45208 119.58104 27680 ft 452 kts 189°
2026-04-25 14:34 28.42106 119.57918 27677 ft 452 kts 189°
2026-04-25 14:34 28.38962 119.57740 27678 ft 454 kts 189°
2026-04-25 14:35 28.35803 119.57566 27681 ft 454 kts 189°
2026-04-25 14:35 28.32652 119.57398 27644 ft 453 kts 189°
2026-04-25 14:35 28.29525 119.57236 27682 ft 449 kts 190°
2026-04-25 14:35 28.26409 119.57071 27682 ft 448 kts 190°
2026-04-25 14:36 28.23294 119.56904 27679 ft 447 kts 190°
2026-04-25 14:36 28.20188 119.56732 27681 ft 447 kts 190°
2026-04-25 14:36 28.17082 119.56558 27687 ft 447 kts 190°
2026-04-25 14:36 28.13975 119.56384 27686 ft 447 kts 190°
2026-04-25 14:37 28.10916 119.56215 27689 ft 447 kts 190°
2026-04-25 14:37 28.07810 119.56070 27644 ft 448 kts 189°
2026-04-25 14:37 28.04706 119.55994 27701 ft 445 kts 189°
2026-04-25 14:37 28.01615 119.55965 27690 ft 443 kts 188°
2026-04-25 14:38 27.98530 119.55952 27692 ft 444 kts 188°
2026-04-25 14:38 27.95440 119.55935 27704 ft 444 kts 188°
2026-04-25 14:38 27.92352 119.55907 27702 ft 443 kts 188°
2026-04-25 14:38 27.89271 119.55873 27704 ft 442 kts 188°
2026-04-25 14:39 27.86196 119.55846 27704 ft 442 kts 188°
2026-04-25 14:39 27.83113 119.55825 27700 ft 444 kts 188°
2026-04-25 14:39 27.80028 119.55810 27707 ft 443 kts 188°
2026-04-25 14:39 27.76987 119.55799 27694 ft 443 kts 188°
2026-04-25 14:40 27.73906 119.55786 27708 ft 443 kts 188°
2026-04-25 14:40 27.70824 119.55773 27704 ft 444 kts 188°
2026-04-25 14:40 27.67732 119.55758 27711 ft 446 kts 188°
2026-04-25 14:40 27.64639 119.55744 27707 ft 444 kts 188°
2026-04-25 14:41 27.61550 119.55728 27711 ft 444 kts 188°
2026-04-25 14:41 27.58464 119.55710 27711 ft 443 kts 188°
2026-04-25 14:41 27.55386 119.55693 27677 ft 441 kts 189°
2026-04-25 14:41 27.52371 119.55676 27713 ft 438 kts 189°
2026-04-25 14:42 27.49327 119.55655 27708 ft 437 kts 189°
2026-04-25 14:42 27.48298 119.55647 27710 ft 437 kts 189°
2026-04-25 14:42 27.43250 119.55612 27711 ft 437 kts 189°
2026-04-25 14:42 27.40213 119.55600 27712 ft 437 kts 189°
2026-04-25 14:43 27.37169 119.55594 27710 ft 437 kts 189°
2026-04-25 14:43 27.34128 119.55590 27714 ft 437 kts 189°
2026-04-25 14:43 27.31081 119.55587 27714 ft 437 kts 189°
2026-04-25 14:43 27.28045 119.55588 27696 ft 436 kts 189°
2026-04-25 14:44 27.25020 119.55591 27715 ft 434 kts 189°
2026-04-25 14:44 27.22040 119.55584 27716 ft 434 kts 189°
2026-04-25 14:44 27.19011 119.55565 27712 ft 436 kts 189°
2026-04-25 14:44 27.15987 119.55539 27711 ft 434 kts 190°
2026-04-25 14:45 27.12971 119.55512 27714 ft 434 kts 189°
2026-04-25 14:45 27.09946 119.55483 27714 ft 434 kts 190°
2026-04-25 14:45 27.06928 119.55460 27712 ft 434 kts 189°
2026-04-25 14:45 27.03910 119.55441 27714 ft 434 kts 189°
2026-04-25 14:46 27.00891 119.55427 27710 ft 433 kts 189°
2026-04-25 14:46 26.97886 119.55411 27711 ft 431 kts 190°
2026-04-25 14:46 26.94928 119.55394 27711 ft 431 kts 190°
2026-04-25 14:46 26.91926 119.55375 27709 ft 431 kts 190°
2026-04-25 14:47 26.88931 119.55354 27712 ft 431 kts 189°
2026-04-25 14:47 26.86947 119.55341 27711 ft 431 kts 190°
2026-04-25 14:47 26.82934 119.55319 27711 ft 431 kts 190°
2026-04-25 14:47 26.79938 119.55303 27709 ft 431 kts 190°
2026-04-25 14:48 26.76942 119.55283 27664 ft 431 kts 189°
2026-04-25 14:48 26.73981 119.55260 27712 ft 432 kts 190°
2026-04-25 14:48 26.70974 119.55236 27710 ft 432 kts 190°
2026-04-25 14:48 26.67970 119.55213 27712 ft 432 kts 189°
2026-04-25 14:49 26.64959 119.55192 27707 ft 432 kts 189°
2026-04-25 14:49 26.61956 119.55173 27709 ft 432 kts 189°
2026-04-25 14:49 26.58936 119.55153 27709 ft 436 kts 189°
2026-04-25 14:49 26.55929 119.55137 27706 ft 435 kts 189°
2026-04-25 14:50 26.52899 119.55124 27713 ft 433 kts 189°
2026-04-25 14:50 26.49885 119.55108 27666 ft 433 kts 189°
2026-04-25 14:50 26.46872 119.55087 27716 ft 434 kts 189°
2026-04-25 14:50 26.43852 119.55064 27711 ft 434 kts 189°
2026-04-25 14:51 26.40829 119.55042 27710 ft 434 kts 189°
2026-04-25 14:51 26.37809 119.55023 27708 ft 434 kts 189°
2026-04-25 14:51 26.34788 119.54999 27708 ft 434 kts 189°
2026-04-25 14:51 26.31771 119.54965 27708 ft 434 kts 189°
2026-04-25 14:52 26.28792 119.54924 27709 ft 434 kts 189°
2026-04-25 14:52 26.25778 119.54883 27710 ft 434 kts 189°
2026-04-25 14:52 26.22791 119.54679 27683 ft 426 kts 195°
2026-04-25 14:52 26.20824 119.54324 27710 ft 421 kts 200°
2026-04-25 14:53 26.17121 119.53176 27707 ft 417 kts 205°
2026-04-25 14:53 26.14348 119.52211 27702 ft 418 kts 205°
2026-04-25 14:53 26.11564 119.51255 27704 ft 418 kts 205°
2026-04-25 14:53 26.08785 119.50310 27699 ft 418 kts 205°
2026-04-25 14:54 26.06051 119.49386 27702 ft 418 kts 205°
2026-04-25 14:54 26.03262 119.48444 27698 ft 416 kts 205°
2026-04-25 14:54 26.00492 119.47506 27711 ft 417 kts 205°
2026-04-25 14:54 25.97717 119.46563 27678 ft 417 kts 205°
2026-04-25 14:55 25.95837 119.45924 27708 ft 418 kts 205°
2026-04-25 14:55 25.92155 119.44674 27709 ft 418 kts 205°
2026-04-25 14:55 25.89374 119.43731 27709 ft 418 kts 205°
2026-04-25 14:55 25.86614 119.42791 27707 ft 418 kts 205°
2026-04-25 14:56 25.83818 119.41837 27705 ft 418 kts 205°
2026-04-25 14:56 25.81042 119.40890 27704 ft 418 kts 205°
2026-04-25 14:56 25.78319 119.39913 27701 ft 414 kts 208°
2026-04-25 14:56 25.75714 119.38613 27700 ft 408 kts 214°
2026-04-25 14:57 25.73314 119.36992 27371 ft 404 kts 220°
2026-04-25 14:57 25.71122 119.35036 26996 ft 401 kts 227°
2026-04-25 14:57 25.69179 119.32829 26620 ft 400 kts 231°
2026-04-25 14:57 25.67279 119.30572 26256 ft 401 kts 231°
2026-04-25 14:58 25.65363 119.28318 25897 ft 403 kts 231°
2026-04-25 14:58 25.63470 119.26105 25552 ft 404 kts 231°
2026-04-25 14:58 25.61522 119.23830 25214 ft 406 kts 231°
2026-04-25 14:58 25.59576 119.21556 24863 ft 408 kts 231°
2026-04-25 14:59 25.57620 119.19263 24521 ft 410 kts 231°
2026-04-25 14:59 25.55667 119.16973 24176 ft 409 kts 231°
2026-04-25 14:59 25.53723 119.14689 23841 ft 403 kts 231°
2026-04-25 14:59 25.51857 119.12501 23673 ft 386 kts 231°
2026-04-25 15:00 25.50035 119.10369 23534 ft 370 kts 232°
2026-04-25 15:00 25.48314 119.08354 23401 ft 354 kts 232°
2026-04-25 15:00 25.46679 119.06436 23268 ft 339 kts 232°
2026-04-25 15:00 25.45097 119.04578 23124 ft 325 kts 232°
2026-04-25 15:01 25.43585 119.02800 23006 ft 312 kts 232°
2026-04-25 15:01 25.42116 119.01072 22807 ft 302 kts 232°
2026-04-25 15:01 25.40698 118.99399 22420 ft 298 kts 233°
2026-04-25 15:01 25.39278 118.97722 21945 ft 297 kts 233°
2026-04-25 15:02 25.37864 118.96057 21466 ft 297 kts 233°
2026-04-25 15:02 25.36449 118.94390 20973 ft 298 kts 233°
2026-04-25 15:02 25.35026 118.92709 20470 ft 300 kts 233°
2026-04-25 15:02 25.33599 118.91026 20010 ft 301 kts 233°
2026-04-25 15:03 25.32184 118.89362 19587 ft 301 kts 233°
2026-04-25 15:03 25.30743 118.87675 19149 ft 302 kts 233°
2026-04-25 15:03 25.29296 118.85985 18716 ft 303 kts 233°
2026-04-25 15:03 25.27852 118.84302 18281 ft 303 kts 233°
2026-04-25 15:04 25.26395 118.82601 17819 ft 304 kts 233°
2026-04-25 15:04 25.24947 118.80905 17373 ft 303 kts 233°
2026-04-25 15:04 25.23505 118.79213 16948 ft 303 kts 233°
2026-04-25 15:04 25.22063 118.77522 16593 ft 302 kts 233°
2026-04-25 15:05 25.20620 118.75835 16210 ft 302 kts 233°
2026-04-25 15:05 25.19181 118.74154 15826 ft 301 kts 232°
2026-04-25 15:05 25.17762 118.72494 15437 ft 300 kts 232°
2026-04-25 15:06 25.14900 118.69149 14643 ft 299 kts 232°
2026-04-25 15:06 25.13467 118.67477 14259 ft 300 kts 232°
2026-04-25 15:06 25.12040 118.65814 13948 ft 298 kts 232°
2026-04-25 15:06 25.10606 118.64142 13892 ft 301 kts 232°
2026-04-25 15:07 25.09161 118.62458 13891 ft 302 kts 232°
2026-04-25 15:07 25.07714 118.60773 13885 ft 303 kts 232°
2026-04-25 15:07 25.06264 118.59088 13889 ft 303 kts 231°
2026-04-25 15:07 25.04813 118.57402 13893 ft 303 kts 231°
2026-04-25 15:08 25.03363 118.55717 13893 ft 303 kts 232°
2026-04-25 15:08 25.01909 118.54029 13895 ft 303 kts 231°
2026-04-25 15:08 25.00477 118.52366 13891 ft 303 kts 232°
2026-04-25 15:08 24.99027 118.50680 13886 ft 303 kts 231°
2026-04-25 15:09 24.97575 118.48990 13892 ft 303 kts 232°
2026-04-25 15:09 24.96125 118.47304 13890 ft 303 kts 231°
2026-04-25 15:09 24.93225 118.43934 13888 ft 303 kts 231°
2026-04-25 15:10 24.91770 118.42246 13893 ft 304 kts 231°
2026-04-25 15:10 24.90316 118.40563 13893 ft 304 kts 231°
2026-04-25 15:10 24.87426 118.37218 13889 ft 303 kts 232°
2026-04-25 15:11 24.85969 118.35527 13880 ft 305 kts 231°
2026-04-25 15:11 24.84511 118.33833 13893 ft 305 kts 232°
2026-04-25 15:11 24.83053 118.32140 13887 ft 305 kts 232°
2026-04-25 15:12 24.80134 118.28764 13683 ft 303 kts 231°
2026-04-25 15:12 24.78685 118.27092 13288 ft 301 kts 231°
2026-04-25 15:12 24.77243 118.25427 12903 ft 299 kts 231°
2026-04-25 15:12 24.76779 118.24891 12782 ft 299 kts 231°
2026-04-25 15:13 24.74386 118.22130 12156 ft 296 kts 230°
2026-04-25 15:13 24.71582 118.18889 11433 ft 293 kts 230°
2026-04-25 15:13 24.70181 118.17270 11069 ft 291 kts 230°
2026-04-25 15:14 24.68788 118.15662 10717 ft 290 kts 229°
2026-04-25 15:14 24.67400 118.14064 10361 ft 288 kts 229°
2026-04-25 15:14 24.66020 118.12476 10007 ft 287 kts 229°
2026-04-25 15:14 24.64646 118.10895 9613 ft 285 kts 229°
2026-04-25 15:15 24.63280 118.09322 9192 ft 284 kts 229°
2026-04-25 15:15 24.61916 118.07750 8785 ft 284 kts 228°
2026-04-25 15:15 24.60575 118.06208 8392 ft 283 kts 228°
2026-04-25 15:15 24.59217 118.04645 7995 ft 282 kts 229°
2026-04-25 15:16 24.57867 118.03089 7607 ft 281 kts 228°
2026-04-25 15:16 24.56520 118.01534 7223 ft 280 kts 228°
2026-04-25 15:16 24.53888 117.98382 6444 ft 279 kts 230°
2026-04-25 15:17 24.51314 117.95226 5671 ft 276 kts 230°
2026-04-25 15:17 24.50051 117.93684 5305 ft 274 kts 229°
2026-04-25 15:17 24.48792 117.92152 5134 ft 264 kts 229°
2026-04-25 15:18 24.47521 117.90763 4998 ft 254 kts 215°
2026-04-25 15:18 24.44358 117.90540 4796 ft 220 kts 154°
2026-04-25 15:18 24.43235 117.91463 4646 ft 186 kts 132°
2026-04-25 15:19 24.42579 117.92548 4449 ft 163 kts 114°
2026-04-25 15:19 24.42439 117.92932 4345 ft 159 kts 108°
2026-04-25 15:19 24.42261 117.94858 3768 ft 151 kts 81°
2026-04-25 15:19 24.42537 117.95958 3410 ft 149 kts 66°
2026-04-25 15:20 24.43065 117.96922 3261 ft 148 kts 52°
2026-04-25 15:20 24.43706 117.97813 3106 ft 149 kts 52°
2026-04-25 15:20 24.44347 117.98706 2916 ft 148 kts 52°
2026-04-25 15:20 24.44983 117.99593 2735 ft 148 kts 52°
2026-04-25 15:21 24.45608 118.00464 2542 ft 147 kts 52°
2026-04-25 15:21 24.46237 118.01342 2353 ft 146 kts 52°
2026-04-25 15:21 24.46864 118.02216 2161 ft 146 kts 52°
2026-04-25 15:21 24.47490 118.03090 1970 ft 145 kts 52°
2026-04-25 15:22 24.48113 118.03959 1777 ft 145 kts 52°
2026-04-25 15:22 24.48734 118.04827 1597 ft 144 kts 52°
2026-04-25 15:22 24.49352 118.05690 1399 ft 144 kts 52°
2026-04-25 15:22 24.49968 118.06550 1211 ft 143 kts 51°
2026-04-25 15:23 24.50579 118.07400 1027 ft 140 kts 51°
2026-04-25 15:23 24.51184 118.08237 830 ft 140 kts 51°
2026-04-25 15:23 24.51783 118.09079 660 ft 140 kts 52°
2026-04-25 15:23 24.52368 118.09908 472 ft 139 kts 51°
2026-04-25 15:24 24.52964 118.10741 286 ft 139 kts 52°
2026-04-25 15:24 24.53560 118.11571 100 ft 138 kts 52°
2026-04-25 15:24 24.54108 118.12342 51 ft 106 kts 52°
2026-04-25 15:24 24.54246 118.12535 49 ft 86 kts 52°
2026-04-25 15:25 24.54579 118.12998 51 ft 29 kts 52°
2026-04-25 15:25 24.54676 118.13156 51 ft 23 kts 68°
2026-04-25 15:25 24.54707 118.13276 49 ft 12 kts 82°
2026-04-25 15:25 24.54709 118.13369 50 ft 11 kts 115°
2026-04-25 15:26 24.54666 118.13417 50 ft 1 kts 163°
2026-04-25 15:26 24.54663 118.13413 50 ft 0 kts 217°
2026-04-25 15:26 24.54634 118.13358 51 ft 17 kts 234°
2026-04-25 15:26 24.54553 118.13246 49 ft 17 kts 227°
2026-04-25 15:27 24.54475 118.13162 50 ft 15 kts 200°
2026-04-25 15:27 24.54395 118.13149 53 ft 11 kts 220°
2026-04-25 15:27 24.54311 118.13033 51 ft 9 kts 233°
2026-04-25 15:28 24.54289 118.13002 54 ft 0 kts 229°
2026-04-25 15:28 24.54278 118.13004 54 ft 3 kts 161°
2026-04-25 15:28 24.54275 118.13009 53 ft 0 kts 136°
2026-04-25 15:28 24.54265 118.13020 52 ft 0 kts 143°